Location: Writing-on-Stone Provincial Park
(49.0825°N, 111.6163°W)
Time: 22:31:14
(UTC-06:00)

Amateur Radio Satellites - All Passes

Search period start: 02 September 2015 22:01
Search period end: 03 September 2015 22:01
Location: Writing-on-Stone Provincial Park, 49.0825°N, 111.6163°W

Satellite Date Start Highest point End Downlink Frequencies (MHz)
Time Altitude Azimuth
PRISM 02 Sep 22:02:14 22:05:36 24° 296° (WNW) 22:08:53 437.425
FUNcube-1 02 Sep 22:05:32 22:10:03 64° 73° (ENE) 22:14:38 145.935
GOMX 1 02 Sep 22:06:38 22:09:15 14° 277° (W) 22:11:44 467.674
DOVE 4 02 Sep 22:07:53 22:11:33 21° 272° (W) 22:15:16 437.250
VELOX 1 02 Sep 22:10:07 22:12:32 15° 58° (ENE) 22:15:07 145.980
CUBEBUG 2 02 Sep 22:10:45 22:15:27 73° 258° (WSW) 22:20:14 437.445
UWE-3 02 Sep 22:13:00 22:17:40 85° 256° (WSW) 22:22:24 435.000/436.395/437.385
CANX-2 02 Sep 22:15:58 22:19:00 18° 271° (W) 22:21:54 2200.000
Cosmos 2504 02 Sep 22:22:43 22:28:12 21° 76° (ENE) 22:34:10 435.465 / 435.565
BEESAT 3 02 Sep 22:26:40 22:30:11 27° 37° (NE) 22:33:42 437.485
HUMSAT D 02 Sep 22:27:58 22:32:06 46° 70° (ENE) 22:36:16 437.325/437.525
SEEDS 02 Sep 22:33:42 22:36:28 16° 272° (W) 22:39:04 437.485
CINEMA 3 02 Sep 22:36:41 22:40:34 23° 270° (W) 22:44:28 145.822/145.860
ANTELSAT 02 Sep 22:41:34 22:42:57 11° 84° (E) 22:44:33 437.575/2403.000
BEESAT 2 02 Sep 22:42:06 22:45:42 29° 38° (NE) 22:49:17 435.950
DX 1 02 Sep 22:45:34 22:49:40 43° 69° (ENE) 22:53:49 434.975-435.025
Oscar 11 02 Sep 22:50:06 22:54:01 32° 265° (W) 22:57:56 145.826/435.025
COMPASS 1 02 Sep 22:52:34 22:54:41 13° 273° (W) 22:56:38 437.405
UKube-1 02 Sep 22:54:29 22:58:37 48° 70° (ENE) 23:02:49 .
AAUSAT CUBESAT 2 02 Sep 23:00:56 23:02:53 13° 274° (W) 23:04:39 437.432
DELFI C3 02 Sep 23:06:32 23:10:08 29° 265° (W) 23:13:42 145.870
CUBEBUG 1 02 Sep 23:10:39 23:14:28 32° 67° (ENE) 23:18:22 437.445
ESTCUBE 1 02 Sep 23:12:07 23:16:17 40° 68° (ENE) 23:20:30 437.505/2401.250
AISAT 02 Sep 23:16:40 23:21:00 59° 71° (ENE) 23:25:23 437.250
Cosmos 2491 02 Sep 23:26:04 23:30:20 14° 288° (WNW) 23:34:03 435.465 / 435.565
50 SAT 02 Sep 23:28:14 23:32:12 86° 76° (ENE) 23:36:11 437.505
UNISAT 6 02 Sep 23:30:27 23:34:35 33° 95° (E) 23:38:40 437.425
AIST 2 02 Sep 23:33:58 23:37:27 25° 34° (NE) 23:40:56 435.215
YUBILEINY 02 Sep 23:35:27 23:43:25 35° 297° (WNW) 23:51:18 435.215
ZACube-1 02 Sep 23:39:13 23:42:29 18° 271° (W) 23:45:39 437.345
FUNcube-1 02 Sep 23:43:44 23:46:50 17° 272° (W) 23:49:49 145.935
VELOX 1 02 Sep 23:44:07 23:48:32 80° 256° (WSW) 23:53:00 145.980
AUBIESAT-1 02 Sep 23:50:09 23:53:10 21° 97° (E) 23:56:04 437.475
TISAT 1 02 Sep 23:53:02 23:55:54 18° 62° (ENE) 23:58:53 437.305
UWE-3 02 Sep 23:53:19 23:55:01 11° 277° (W) 23:56:28 435.000/436.395/437.385
M-CUBED/EXP-1 PRIME 02 Sep 23:57:28 00:01:01 30° 100° (E) 00:04:19 437.505
TIGRISAT 02 Sep 23:57:51 00:02:23 58° 100° (E) 00:06:48 435.000
CUSAT 1 02 Sep 23:58:04 00:01:54 29° 86° (E) 00:06:50 437.405
BEESAT 3 03 Sep 00:04:23 00:08:18 48° 237° (WSW) 00:12:08 437.485
RS-15 03 Sep 00:04:42 00:16:12 60° 37° (NE) 00:28:13 29.354- 29.394
HUMSAT D 03 Sep 00:04:42 00:08:04 21° 269° (W) 00:11:22 437.325/437.525
BUGSAT 1 03 Sep 00:10:23 00:13:29 20° 91° (E) 00:16:41 437.445
Cosmos 2504 03 Sep 00:10:55 00:19:12 82° 97° (E) 00:27:53 435.465 / 435.565
DUCHIFAT 1 03 Sep 00:12:38 00:16:28 31° 95° (E) 00:20:18 145.980
POLYITAN 1 03 Sep 00:12:38 00:16:33 33° 96° (E) 00:20:28 437.675
POPSAT HIP 1 03 Sep 00:14:16 00:18:12 33° 96° (E) 00:22:07 437.405
ANTELSAT 03 Sep 00:15:55 00:20:33 89° 103° (ESE) 00:25:02 437.575/2403.000
BEESAT 2 03 Sep 00:19:59 00:23:54 45° 238° (WSW) 00:27:44 435.950
DX 1 03 Sep 00:22:39 00:26:07 23° 267° (W) 00:29:33 434.975-435.025
NANOSAT C BR1 03 Sep 00:30:49 00:35:00 48° 99° (E) 00:39:10 145.865
QB50P2 03 Sep 00:31:42 00:35:55 52° 100° (E) 00:40:07 145.880/145.840
UKube-1 03 Sep 00:31:46 00:35:02 20° 269° (W) 00:38:14 .
SPROUT 03 Sep 00:32:27 00:36:43 68° 73° (ENE) 00:41:02 437.525
SWISSCUBE 03 Sep 00:37:45 00:40:05 14° 56° (NE) 00:42:36 437.505
DANDE 03 Sep 00:43:04 00:46:47 43° 92° (E) 00:51:46 436.750
QB50P1 03 Sep 00:45:27 00:49:47 70° 102° (ESE) 00:54:03 145.935-145.965
CUBEBUG 1 03 Sep 00:46:58 00:50:49 31° 265° (W) 00:54:42 437.445
ESTCUBE 1 03 Sep 00:49:31 00:53:18 26° 267° (W) 00:57:02 437.505/2401.250
AISAT 03 Sep 00:54:58 00:58:00 17° 271° (W) 01:00:55 437.250
SO-50 03 Sep 01:06:11 01:10:24 32° 118° (ESE) 01:14:47 436.795
UNISAT 6 03 Sep 01:07:15 01:11:21 32° 294° (WNW) 01:15:19 437.425
AIST 2 03 Sep 01:12:13 01:16:23 63° 235° (SW) 01:20:27 435.215
ITUPSAT 1 03 Sep 01:15:38 01:19:30 25° 63° (ENE) 01:23:25 437.325
AUBIESAT-1 03 Sep 01:24:22 01:28:05 37° 298° (WNW) 01:31:31 437.475
TISAT 1 03 Sep 01:27:08 01:31:17 57° 259° (W) 01:35:29 437.305
M-CUBED/EXP-1 PRIME 03 Sep 01:32:15 01:35:47 28° 301° (WNW) 01:39:00 437.505
TIGRISAT 03 Sep 01:35:22 01:38:45 20° 299° (WNW) 01:41:58 435.000
CUSAT 1 03 Sep 01:39:56 01:44:12 39° 295° (WNW) 01:49:48 437.405
BUGSAT 1 03 Sep 01:45:06 01:49:13 48° 290° (WNW) 01:53:20 437.445
BEESAT 03 Sep 01:46:27 01:50:58 46° 69° (ENE) 01:55:33 436.000
DUCHIFAT 1 03 Sep 01:48:26 01:52:14 31° 293° (WNW) 01:55:59 145.980
POLYITAN 1 03 Sep 01:48:37 01:52:24 29° 294° (WNW) 01:56:06 437.675
POPSAT HIP 1 03 Sep 01:50:14 01:53:59 29° 294° (WNW) 01:57:41 437.405
ANTELSAT 03 Sep 01:54:12 01:56:40 14° 303° (WNW) 01:58:58 437.575/2403.000
PCSat 03 Sep 02:00:31 02:05:31 40° 115° (ESE) 02:10:36 145.827
Cosmos 2504 03 Sep 02:05:30 02:12:35 28° 301° (WNW) 02:19:39 435.465 / 435.565
NANOSAT C BR1 03 Sep 02:07:15 02:10:33 21° 297° (WNW) 02:13:45 145.865
QB50P2 03 Sep 02:08:17 02:11:30 20° 297° (WNW) 02:14:36 145.880/145.840
SPROUT 03 Sep 02:10:50 02:13:20 15° 273° (W) 02:15:40 437.525
SWISSCUBE 03 Sep 02:12:31 02:17:17 84° 74° (ENE) 02:22:04 437.505
RS-15 03 Sep 02:17:30 02:28:57 59° 243° (WSW) 02:40:42 29.354- 29.394
Gurwin Techsat 1B 03 Sep 02:19:14 02:20:26 11° 82° (E) 02:21:58 435.225
KKS-1 03 Sep 02:19:47 02:22:55 20° 61° (ENE) 02:26:11 437.445
QB50P1 03 Sep 02:22:28 02:25:10 16° 300° (WNW) 02:27:43 145.935-145.965
GONETS M04 03 Sep 02:26:19 02:33:44 34° 84° (E) 02:41:21
DANDE 03 Sep 02:26:55 02:30:23 23° 302° (WNW) 02:34:37 436.750
O/OREOS (USA 219) 03 Sep 02:43:06 02:43:51 10° 34° (NE) 02:44:44 437.305
SO-50 03 Sep 02:46:04 02:50:48 49° 317° (NW) 02:55:39 436.795
ITUPSAT 1 03 Sep 02:52:32 02:57:10 48° 261° (W) 03:01:47 437.325
Oscar 19 03 Sep 02:55:20 03:00:32 63° 101° (ESE) 03:05:41 437.125/150
BEESAT 03 Sep 03:25:05 03:29:03 25° 268° (W) 03:32:57 436.000
STARS 03 Sep 03:29:52 03:34:09 51° 70° (ENE) 03:38:29 437.465
Cosmos 2499 03 Sep 03:31:56 03:38:25 25° 79° (E) 03:45:20 435.465 / 435.565
JAS-2 03 Sep 03:32:41 03:38:36 29° 88° (E) 03:44:03 435.910
PCSat 03 Sep 03:43:48 03:48:58 42° 316° (NW) 03:54:09 145.827
SWISSCUBE 03 Sep 03:53:22 03:55:51 14° 274° (W) 03:58:08 437.505
KKS-1 03 Sep 03:54:46 03:59:10 59° 259° (WSW) 04:03:38 437.445
Gurwin Techsat 1B 03 Sep 03:56:11 04:01:31 72° 102° (ESE) 04:06:50 435.225
ITAMSAT 1 03 Sep 03:59:39 04:04:49 63° 102° (ESE) 04:09:58 435.822/435.867
O/OREOS (USA 219) 03 Sep 04:20:05 04:24:33 47° 57° (ENE) 04:29:00 437.305
GONETS M04 03 Sep 04:21:31 04:30:08 64° 286° (WNW) 04:38:50
MOZHAYETS 4 03 Sep 04:25:11 04:29:35 47° 70° (ENE) 04:34:02
SO-50 03 Sep 04:29:07 04:32:29 18° 340° (NNW) 04:35:51 436.795
RS-15 03 Sep 04:32:58 04:39:09 15° 264° (W) 04:44:27 29.354- 29.394
Oscar 19 03 Sep 04:35:26 04:39:30 23° 300° (WNW) 04:43:27 437.125/150
CUBESAT XI-V 03 Sep 04:52:28 04:53:50 11° 55° (NE) 04:55:24 437.345
HORYU 2 03 Sep 04:53:57 04:57:51 29° 95° (E) 05:01:46 437.375
AO-7 03 Sep 04:58:16 05:06:04 43° 98° (E) 05:13:53 29.400- 29.500
STARS 03 Sep 05:07:34 05:10:54 20° 269° (W) 05:14:10 437.465
JAS-2 03 Sep 05:17:15 05:24:17 62° 292° (WNW) 05:30:27 435.910
VERMONT LUNAR 03 Sep 05:19:59 05:21:56 16° 177° (S) 05:23:53 437.305
Cosmos 2499 03 Sep 05:21:58 05:30:37 86° 280° (W) 05:39:37 435.465 / 435.565
PCSat 03 Sep 05:30:39 05:33:53 15° 340° (NNW) 05:37:02 145.827
Gurwin Techsat 1B 03 Sep 05:37:04 05:41:02 21° 301° (WNW) 05:44:53 435.225
ITAMSAT 1 03 Sep 05:39:53 05:43:57 23° 300° (WNW) 05:47:54 435.822/435.867
STRAND 1 03 Sep 05:43:12 05:45:22 13° 53° (NE) 05:47:43 437.568
YUBILEINY 03 Sep 05:48:29 05:50:18 11° 37° (NE) 05:52:37 435.215
O/OREOS (USA 219) 03 Sep 05:59:59 06:03:45 24° 256° (WSW) 06:07:24 437.305
MOZHAYETS 4 03 Sep 06:03:23 06:07:05 23° 269° (W) 06:10:41
SO-50 03 Sep 06:12:27 06:14:56 14° 5° (N) 06:17:26 436.795
GONETS M04 03 Sep 06:23:45 06:29:17 17° 312° (NW) 06:34:29
CUBESAT XI-V 03 Sep 06:25:57 06:30:31 72° 74° (ENE) 06:35:08 437.345
HORYU 2 03 Sep 06:30:28 06:34:33 35° 293° (WNW) 06:38:34 437.375
CUTE-I 03 Sep 06:43:11 06:46:50 19° 88° (E) 06:50:40 437.470
AO-7 03 Sep 06:51:07 06:59:08 54° 299° (WNW) 07:07:04 29.400- 29.500
PHONESAT 2.4 03 Sep 06:52:23 06:54:40 17° 170° (S) 06:56:58 2401.200-2431.200
VERMONT LUNAR 03 Sep 06:56:20 06:57:40 12° 194° (SSW) 06:58:59 437.305
JAS-2 03 Sep 07:03:47 07:07:56 16° 314° (NW) 07:11:38 435.910
PCSat 03 Sep 07:17:45 07:19:40 12° 6° (N) 07:21:36 145.827
Cosmos 2499 03 Sep 07:18:21 07:25:20 25° 305° (NW) 07:32:11 435.465 / 435.565
STRAND 1 03 Sep 07:18:42 07:23:45 70° 72° (ENE) 07:28:52 437.568
PRISM 03 Sep 07:20:08 07:24:04 49° 71° (ENE) 07:28:03 437.425
Cubesat XI-IV 03 Sep 07:38:03 07:43:16 53° 100° (E) 07:48:30 437.490
YUBILEINY 03 Sep 07:42:19 07:50:31 41° 66° (ENE) 07:58:45 435.215
AIST 1 03 Sep 07:50:21 07:53:35 22° 88° (E) 07:56:56
SO-50 03 Sep 07:53:09 07:57:10 24° 28° (NNE) 08:01:13 436.795
CUBESAT XI-V 03 Sep 08:05:49 08:08:34 15° 273° (W) 08:11:08 437.345
BRITE-PL 03 Sep 08:08:03 08:12:36 26° 91° (E) 08:17:23 437.365/2234.400
CUTE-I 03 Sep 08:22:13 08:27:32 71° 289° (WNW) 08:32:50 437.470
GOMX 1 03 Sep 08:23:34 08:27:43 22° 88° (E) 08:32:02 467.674
DOVE 4 03 Sep 08:24:59 08:27:40 14° 83° (E) 08:30:35 437.250
ISS 03 Sep 08:28:38 08:30:39 16° 139° (SE) 08:32:43 145.825
PHONESAT 2.4 03 Sep 08:29:26 08:31:53 18° 186° (S) 08:34:19 2401.200-2431.200
Cosmos 2491 03 Sep 08:37:02 08:44:28 34° 84° (E) 08:52:04 435.465 / 435.565
AO-7 03 Sep 08:45:11 08:50:16 18° 322° (NW) 08:55:06 29.400- 29.500
CUSAT 1 03 Sep 08:46:52 08:49:59 13° 46° (NE) 08:53:38 437.405
CINEMA 3 03 Sep 08:52:26 08:52:56 10° 81° (E) 08:53:45 145.822/145.860
PRISM 03 Sep 08:56:55 08:59:49 18° 269° (W) 09:02:36 437.425
STRAND 1 03 Sep 09:00:02 09:03:34 18° 272° (W) 09:06:56 437.568
PCSat 03 Sep 09:01:01 09:05:12 22° 31° (NNE) 09:09:26 145.827
HO-68 03 Sep 09:05:49 09:11:47 28° 91° (E) 09:17:52 435.675
AUBIESAT-1 03 Sep 09:08:50 09:10:24 12° 50° (NE) 09:12:07 437.475
M-CUBED/EXP-1 PRIME 03 Sep 09:15:39 09:18:19 16° 53° (NE) 09:21:05 437.505
Cubesat XI-IV 03 Sep 09:18:40 09:23:08 27° 299° (WNW) 09:27:32 437.490
TIGRISAT 03 Sep 09:26:23 09:28:38 14° 57° (ENE) 09:31:02 435.000
AIST 1 03 Sep 09:27:01 09:31:02 39° 287° (WNW) 09:35:04
SO-50 03 Sep 09:33:25 09:38:26 87° 52° (NE) 09:43:18 436.795
DANDE 03 Sep 09:33:51 09:38:35 18° 53° (NE) 09:44:02 436.750
YUBILEINY 03 Sep 09:39:11 09:47:46 56° 269° (W) 09:56:13 435.215
CUTE 1.7 + AOD 2 03 Sep 09:41:04 09:45:03 39° 97° (E) 09:49:00 437.475
ANTELSAT 03 Sep 09:43:27 09:46:43 19° 61° (ENE) 09:50:06 437.575/2403.000
BRITE-PL 03 Sep 09:46:01 09:51:26 57° 289° (WNW) 09:56:59 437.365/2234.400
Cosmos 2504 03 Sep 09:53:01 10:00:47 38° 65° (ENE) 10:08:15 435.465 / 435.565
CANX-2 03 Sep 09:55:24 09:59:37 60° 101° (E) 10:03:46 2200.000
CUBEBUG 2 03 Sep 09:58:43 10:02:06 20° 89° (E) 10:05:30 437.445
UWE-3 03 Sep 10:00:13 10:02:57 16° 87° (E) 10:05:48 435.000/436.395/437.385
GOMX 1 03 Sep 10:00:52 10:06:18 65° 288° (WNW) 10:11:45 467.674
DOVE 4 03 Sep 10:00:53 10:06:15 87° 101° (E) 10:11:33 437.250
ISS 03 Sep 10:03:23 10:06:38 72° 157° (SSE) 10:09:54 145.825
CUTE-I 03 Sep 10:04:05 10:06:47 14° 307° (NW) 10:09:18 437.470
QB50P1 03 Sep 10:09:08 10:10:49 12° 57° (ENE) 10:12:41 145.935-145.965
SEEDS 03 Sep 10:11:50 10:16:01 65° 101° (E) 10:20:10 437.485
CINEMA 3 03 Sep 10:26:08 10:31:11 72° 101° (E) 10:36:04 145.822/145.860
CUSAT 1 03 Sep 10:27:17 10:34:37 46° 68° (ENE) 10:42:31 437.405
COMPASS 1 03 Sep 10:29:01 10:33:12 78° 102° (ESE) 10:37:21 437.405
Cosmos 2491 03 Sep 10:32:16 10:40:54 64° 286° (WNW) 10:49:34 435.465 / 435.565
UNISAT 6 03 Sep 10:32:49 10:37:20 49° 70° (ENE) 10:41:54 437.425
Oscar 11 03 Sep 10:32:54 10:36:50 34° 96° (E) 10:40:47 145.826/435.025
AAUSAT CUBESAT 2 03 Sep 10:36:43 10:40:53 80° 103° (ESE) 10:45:00 437.432
AUBIESAT-1 03 Sep 10:39:42 10:44:22 63° 67° (ENE) 10:48:53 437.475
DELFI C3 03 Sep 10:41:03 10:44:27 26° 94° (E) 10:47:52 145.870
PCSat 03 Sep 10:44:02 10:49:30 80° 54° (NE) 10:54:56 145.827
M-CUBED/EXP-1 PRIME 03 Sep 10:47:43 10:52:31 84° 69° (ENE) 10:57:11 437.505
HO-68 03 Sep 10:53:00 11:00:10 70° 292° (WNW) 11:07:19 435.675
TIGRISAT 03 Sep 10:59:58 11:04:42 83° 73° (ENE) 11:09:26 435.000
BUGSAT 1 03 Sep 11:04:20 11:07:36 24° 64° (ENE) 11:10:59 437.445
DUCHIFAT 1 03 Sep 11:08:36 11:12:33 39° 69° (ENE) 11:16:34 145.980
POLYITAN 1 03 Sep 11:09:15 11:13:18 42° 69° (ENE) 11:17:24 437.675
POPSAT HIP 1 03 Sep 11:10:41 11:14:43 42° 69° (ENE) 11:18:49 437.405
SO-50 03 Sep 11:15:14 11:18:23 17° 249° (WSW) 11:21:18 436.795
DANDE 03 Sep 11:15:39 11:23:07 64° 74° (ENE) 11:31:35 436.750
CUTE 1.7 + AOD 2 03 Sep 11:17:19 11:20:47 25° 295° (WNW) 11:24:11 437.475
ANTELSAT 03 Sep 11:18:22 11:23:04 66° 259° (WSW) 11:27:47 437.575/2403.000
ZACube-1 03 Sep 11:22:02 11:26:34 72° 102° (ESE) 11:30:58 437.345
FUNcube-1 03 Sep 11:26:05 11:30:37 76° 102° (ESE) 11:35:00 145.935
BRITE-PL 03 Sep 11:26:53 11:29:00 12° 307° (NW) 11:30:52 437.365/2234.400
NANOSAT C BR1 03 Sep 11:26:55 11:31:07 61° 72° (ENE) 11:35:21 145.865
QB50P2 03 Sep 11:28:12 11:32:26 66° 73° (ENE) 11:36:43 145.880/145.840
VELOX 1 03 Sep 11:31:39 11:34:11 15° 88° (E) 11:36:52 145.980
CANX-2 03 Sep 11:32:18 11:35:08 17° 299° (WNW) 11:37:50 2200.000
CUBEBUG 2 03 Sep 11:34:33 11:39:11 56° 289° (WNW) 11:43:39 437.445
UWE-3 03 Sep 11:35:26 11:40:02 68° 287° (WNW) 11:44:28 435.000/436.395/437.385
YUBILEINY 03 Sep 11:39:30 11:42:42 12° 291° (WNW) 11:45:17 435.215
DOVE 4 03 Sep 11:39:46 11:43:21 18° 302° (WNW) 11:46:47 437.250
ISS 03 Sep 11:39:57 11:43:10 52° 356° (N) 11:46:23 145.825
GOMX 1 03 Sep 11:40:54 11:43:31 13° 306° (NW) 11:45:56 467.674
QB50P1 03 Sep 11:41:46 11:46:02 87° 76° (ENE) 11:50:22 145.935-145.965
HUMSAT D 03 Sep 11:43:22 11:47:30 48° 99° (E) 11:51:34 437.325/437.525
Cosmos 2504 03 Sep 11:45:10 11:53:31 59° 269° (W) 12:01:19 435.465 / 435.565
SEEDS 03 Sep 11:48:44 11:51:22 16° 299° (WNW) 11:53:52 437.485
CINEMA 3 03 Sep 12:04:16 12:07:51 20° 300° (WNW) 12:11:16 145.822/145.860
DX 1 03 Sep 12:05:39 12:09:53 45° 99° (E) 12:14:06 434.975-435.025
COMPASS 1 03 Sep 12:06:10 12:08:20 14° 300° (WNW) 12:10:22 437.405
Oscar 11 03 Sep 12:09:12 12:12:57 29° 294° (WNW) 12:16:37 145.826/435.025
CUSAT 1 03 Sep 12:09:50 12:17:21 52° 267° (W) 12:25:12 437.405
UNISAT 6 03 Sep 12:10:34 12:14:22 23° 269° (W) 12:18:06 437.425
UKube-1 03 Sep 12:13:37 12:17:51 49° 100° (E) 12:22:05 .
AAUSAT CUBESAT 2 03 Sep 12:13:52 12:15:55 13° 301° (WNW) 12:17:51 437.432
DELFI C3 03 Sep 12:15:58 12:19:32 31° 292° (WNW) 12:23:03 145.870
AUBIESAT-1 03 Sep 12:15:58 12:19:24 19° 264° (W) 12:22:40 437.475
M-CUBED/EXP-1 PRIME 03 Sep 12:25:06 12:27:50 15° 267° (W) 12:30:21 437.505
PCSat 03 Sep 12:28:32 12:32:21 19° 252° (WSW) 12:36:01 145.827
GONETS M04 03 Sep 12:30:17 12:36:46 23° 54° (NE) 12:43:31
CUBEBUG 1 03 Sep 12:31:03 12:35:08 36° 96° (E) 12:39:14 437.445
50 SAT 03 Sep 12:33:35 12:37:29 73° 102° (ESE) 12:41:18 437.505
Cosmos 2491 03 Sep 12:34:33 12:40:03 17° 312° (NW) 12:45:12 435.465 / 435.565
ESTCUBE 1 03 Sep 12:37:00 12:41:23 49° 99° (E) 12:45:46 437.505/2401.250
Oscar 19 03 Sep 12:38:34 12:42:31 23° 60° (ENE) 12:46:36 437.125/150
BUGSAT 1 03 Sep 12:39:01 12:42:53 39° 262° (W) 12:46:48 437.445
AISAT 03 Sep 12:39:25 12:43:54 68° 102° (ESE) 12:48:23 437.250
TIGRISAT 03 Sep 12:39:36 12:42:07 14° 274° (W) 12:44:25 435.000
HO-68 03 Sep 12:42:00 12:46:49 19° 313° (NW) 12:51:25 435.675
DUCHIFAT 1 03 Sep 12:45:00 12:48:30 24° 267° (W) 12:51:58 145.980
POLYITAN 1 03 Sep 12:45:57 12:49:23 23° 268° (W) 12:52:47 437.675
POPSAT HIP 1 03 Sep 12:47:23 12:50:47 22° 268° (W) 12:54:09 437.405
DANDE 03 Sep 12:59:13 13:06:03 36° 270° (W) 13:13:27 436.750
ZACube-1 03 Sep 12:59:31 13:02:24 17° 300° (WNW) 13:05:07 437.345
FUNcube-1 03 Sep 13:03:39 13:06:22 16° 301° (WNW) 13:08:57 145.935
NANOSAT C BR1 03 Sep 13:04:42 13:07:24 16° 272° (W) 13:09:57 145.865
QB50P2 03 Sep 13:06:18 13:08:50 15° 272° (W) 13:11:13 145.880/145.840
VELOX 1 03 Sep 13:06:48 13:11:16 70° 287° (WNW) 13:15:43 145.980
TISAT 1 03 Sep 13:08:15 13:11:03 17° 89° (E) 13:13:59 437.305
UWE-3 03 Sep 13:14:28 13:15:43 11° 305° (NW) 13:16:46 435.000/436.395/437.385
ISS 03 Sep 13:16:32 13:19:48 73° 15° (NNE) 13:23:04 145.825
Cosmos 2499 03 Sep 13:17:32 13:21:14 13° 42° (NE) 13:25:17 435.465 / 435.565
HUMSAT D 03 Sep 13:19:44 13:22:55 21° 297° (WNW) 13:26:01 437.325/437.525
QB50P1 03 Sep 13:21:14 13:22:37 11° 275° (W) 13:23:45 145.935-145.965
Cosmos 2504 03 Sep 13:40:16 13:43:57 13° 290° (WNW) 13:47:05 435.465 / 435.565
DX 1 03 Sep 13:42:22 13:45:53 23° 297° (WNW) 13:49:19 434.975-435.025
Gurwin Techsat 1B 03 Sep 13:42:46 13:47:10 28° 62° (ENE) 13:51:40 435.225
ITAMSAT 1 03 Sep 13:43:51 13:47:53 24° 60° (ENE) 13:52:01 435.822/435.867
JAS-2 03 Sep 13:48:12 13:54:24 27° 55° (NE) 14:00:40 435.910
UKube-1 03 Sep 13:50:21 13:53:42 22° 298° (WNW) 13:56:58 .
SPROUT 03 Sep 13:50:48 13:55:11 77° 103° (ESE) 13:59:31 437.525
CUSAT 1 03 Sep 13:55:37 13:58:34 12° 284° (WNW) 14:01:01 437.405
BEESAT 3 03 Sep 14:03:30 14:04:07 10° 110° (ESE) 14:04:57 437.485
CUBEBUG 1 03 Sep 14:07:33 14:11:24 29° 294° (WNW) 14:15:11 437.445
50 SAT 03 Sep 14:09:37 14:11:30 13° 300° (WNW) 14:13:14 437.505
SWISSCUBE 03 Sep 14:09:52 14:12:42 16° 88° (E) 14:15:42 437.505
AO-7 03 Sep 14:11:45 14:17:59 25° 46° (NE) 14:24:23 29.400- 29.500
ESTCUBE 1 03 Sep 14:14:26 14:17:59 23° 297° (WNW) 14:21:27 437.505/2401.250
Oscar 19 03 Sep 14:16:22 14:21:30 62° 258° (WSW) 14:26:41 437.125/150
AISAT 03 Sep 14:17:01 14:20:02 18° 300° (WNW) 14:22:55 437.250
BEESAT 2 03 Sep 14:19:16 14:20:40 12° 111° (ESE) 14:22:16 435.950
GONETS M04 03 Sep 14:26:24 14:35:16 82° 79° (E) 14:44:09
RS-15 03 Sep 14:39:58 14:45:32 16° 97° (E) 14:51:57 29.354- 29.394
TISAT 1 03 Sep 14:42:59 14:47:12 55° 289° (WNW) 14:51:23 437.305
VELOX 1 03 Sep 14:45:49 14:47:04 11° 305° (NW) 14:48:06 145.980
ITUPSAT 1 03 Sep 14:48:57 14:53:12 32° 95° (E) 14:57:30 437.325
ISS 03 Sep 14:53:09 14:56:03 30° 215° (SW) 14:58:56 145.825
Cosmos 2499 03 Sep 15:08:54 15:17:18 49° 69° (ENE) 15:25:10 435.465 / 435.565
BEESAT 03 Sep 15:19:56 15:24:39 62° 101° (E) 15:29:23 436.000
Gurwin Techsat 1B 03 Sep 15:21:45 15:26:55 51° 260° (W) 15:32:07 435.225
ITAMSAT 1 03 Sep 15:21:57 15:27:03 59° 258° (WSW) 15:32:11 435.822/435.867
SPROUT 03 Sep 15:28:11 15:30:44 15° 301° (WNW) 15:33:09 437.525
JAS-2 03 Sep 15:30:49 15:38:40 88° 255° (WSW) 15:46:31 435.910
BEESAT 3 03 Sep 15:37:19 15:41:23 80° 128° (SE) 15:45:30 437.485
KKS-1 03 Sep 15:42:22 15:45:40 20° 91° (E) 15:49:04 437.445
SWISSCUBE 03 Sep 15:46:23 15:51:09 72° 286° (WNW) 15:55:53 437.505
BEESAT 2 03 Sep 15:54:00 15:58:07 87° 129° (SE) 16:02:16 435.950
HORYU 2 03 Sep 15:55:47 16:00:04 45° 69° (ENE) 16:04:24 437.375
AO-7 03 Sep 16:01:24 16:09:44 80° 67° (ENE) 16:18:06 29.400- 29.500
GONETS M04 03 Sep 16:24:20 16:31:15 26° 280° (W) 16:37:53
ITUPSAT 1 03 Sep 16:26:47 16:31:09 36° 294° (WNW) 16:35:28 437.325
RS-15 03 Sep 16:44:59 16:55:41 65° 119° (ESE) 17:06:57 29.354- 29.394
AIST 2 03 Sep 16:51:26 16:55:40 73° 126° (SE) 16:59:55 435.215
STARS 03 Sep 16:51:35 16:55:59 56° 101° (E) 17:00:21 437.465
BEESAT 03 Sep 16:58:35 17:02:07 21° 300° (WNW) 17:05:32 436.000
Cosmos 2499 03 Sep 17:02:21 17:10:29 46° 272° (W) 17:18:02 435.465 / 435.565
BEESAT 3 03 Sep 17:16:38 17:19:48 21° 328° (NNW) 17:22:55 437.485
KKS-1 03 Sep 17:18:14 17:22:38 51° 290° (WNW) 17:26:59 437.445
JAS-2 03 Sep 17:18:47 17:24:45 22° 276° (W) 17:30:28 435.910
Cubesat XI-IV 03 Sep 17:26:00 17:29:59 23° 59° (ENE) 17:34:06 437.490
SWISSCUBE 03 Sep 17:26:18 17:28:14 12° 306° (NW) 17:29:59 437.505
HORYU 2 03 Sep 17:33:18 17:36:56 23° 268° (W) 17:40:30 437.375
BEESAT 2 03 Sep 17:33:35 17:36:42 20° 329° (NNW) 17:39:46 435.950
MOZHAYETS 4 03 Sep 17:53:01 17:57:34 65° 101° (E) 18:02:06
AO-7 03 Sep 17:56:33 18:03:30 27° 270° (W) 18:10:14 29.400- 29.500
CUTE-I 03 Sep 18:08:40 18:13:42 46° 67° (ENE) 18:18:47 437.470
CUBESAT XI-V 03 Sep 18:19:56 18:22:13 14° 86° (E) 18:24:43 437.345
STARS 03 Sep 18:28:47 18:32:05 20° 299° (WNW) 18:35:15 437.465
AIST 2 03 Sep 18:31:12 18:34:40 23° 327° (NNW) 18:38:04 435.215
O/OREOS (USA 219) 03 Sep 18:37:12 18:40:46 24° 104° (ESE) 18:44:28 437.305
Cosmos 2491 03 Sep 18:41:08 18:47:34 23° 54° (NE) 18:54:16 435.465 / 435.565
RS-15 03 Sep 18:57:46 19:08:37 54° 327° (NNW) 19:19:58 29.354- 29.394
Cubesat XI-IV 03 Sep 19:04:23 19:09:41 67° 258° (WSW) 19:15:00 437.490
CANX-2 03 Sep 19:20:17 19:20:58 10° 57° (ENE) 19:21:51 2200.000
BRITE-PL 03 Sep 19:23:14 19:27:25 37° 66° (ENE) 19:31:57 437.365/2234.400
STRAND 1 03 Sep 19:26:06 19:29:21 17° 88° (E) 19:32:47 437.568
AIST 1 03 Sep 19:29:20 19:33:41 77° 79° (E) 19:38:03
MOZHAYETS 4 03 Sep 19:31:11 19:34:22 18° 299° (WNW) 19:37:25
DOVE 4 03 Sep 19:34:13 19:37:46 21° 60° (ENE) 19:41:34 437.250
SEEDS 03 Sep 19:35:37 19:36:32 11° 57° (ENE) 19:37:39 437.485
GOMX 1 03 Sep 19:35:45 19:39:52 31° 64° (ENE) 19:44:19 467.674
HO-68 03 Sep 19:38:54 19:45:07 34° 57° (ENE) 19:51:28 435.675
CUTE-I 03 Sep 19:49:20 19:54:00 30° 266° (W) 19:58:36 437.470
COMPASS 1 03 Sep 19:51:19 19:52:53 12° 58° (ENE) 19:54:37 437.405
CUBESAT XI-V 03 Sep 19:55:40 20:00:19 80° 285° (WNW) 20:04:59 437.345
CINEMA 3 03 Sep 19:56:35 19:59:35 17° 58° (ENE) 20:02:47 145.822/145.860
AAUSAT CUBESAT 2 03 Sep 19:58:34 20:00:09 12° 59° (ENE) 20:01:54 437.432
AIST 2 03 Sep 20:14:05 20:14:43 10° 350° (N) 20:15:18 435.215
O/OREOS (USA 219) 03 Sep 20:15:32 20:19:57 47° 303° (WNW) 20:24:25 437.305
PRISM 03 Sep 20:33:19 20:37:17 44° 99° (E) 20:41:15 437.425
Cosmos 2491 03 Sep 20:37:17 20:46:05 82° 79° (E) 20:54:55 435.465 / 435.565
CUTE 1.7 + AOD 2 03 Sep 20:37:33 20:41:39 47° 71° (ENE) 20:45:47 437.475
BEESAT 3 03 Sep 20:37:56 20:38:56 11° 15° (NNE) 20:40:00 437.485
ZACube-1 03 Sep 20:47:52 20:50:14 14° 58° (ENE) 20:52:46 437.345
YUBILEINY 03 Sep 20:48:51 20:56:40 39° 85° (E) 21:04:41 435.215
FUNcube-1 03 Sep 20:51:32 20:54:02 15° 59° (ENE) 20:56:42 145.935
CANX-2 03 Sep 20:51:54 20:56:11 73° 74° (ENE) 21:00:28 2200.000
BEESAT 2 03 Sep 20:54:47 20:56:06 11° 16° (NNE) 20:57:28 435.950
CUBEBUG 2 03 Sep 21:00:24 21:04:23 28° 65° (ENE) 21:08:28 437.445
UWE-3 03 Sep 21:00:48 21:04:24 23° 63° (ENE) 21:08:07 435.000/436.395/437.385
BRITE-PL 03 Sep 21:02:01 21:06:03 30° 268° (W) 21:10:20 437.365/2234.400
STRAND 1 03 Sep 21:04:05 21:09:12 74° 288° (WNW) 21:14:18 437.568
SEEDS 03 Sep 21:07:24 21:11:38 76° 75° (ENE) 21:15:53 437.485
AIST 1 03 Sep 21:08:54 21:10:47 12° 277° (W) 21:12:28
DOVE 4 03 Sep 21:10:19 21:15:02 64° 260° (W) 21:20:06 437.250
GOMX 1 03 Sep 21:13:31 21:17:54 38° 265° (W) 21:22:36 467.674
RS-15 03 Sep 21:13:50 21:24:07 37° 359° (N) 21:34:52 29.354- 29.394
COMPASS 1 03 Sep 21:23:43 21:27:56 88° 89° (E) 21:32:10 437.405
HO-68 03 Sep 21:25:26 21:32:32 63° 258° (WSW) 21:39:42 435.675
AAUSAT CUBESAT 2 03 Sep 21:30:57 21:35:09 90° 80° (E) 21:39:21 437.432
CINEMA 3 03 Sep 21:31:19 21:36:08 83° 255° (WSW) 21:41:11 145.822/145.860
Oscar 11 03 Sep 21:31:21 21:35:29 44° 70° (ENE) 21:39:39 145.826/435.025
DELFI C3 03 Sep 21:31:53 21:35:22 29° 67° (ENE) 21:38:55 145.870
DX 1 03 Sep 21:33:30 21:33:46 10° 54° (NE) 21:34:14 434.975-435.025
CUBESAT XI-V 03 Sep 21:34:58 21:37:05 13° 303° (WNW) 21:39:01 437.345
UKube-1 03 Sep 21:40:08 21:40:58 11° 55° (NE) 21:42:00 .
AIST 2 03 Sep 21:53:46 21:55:07 11° 14° (NNE) 21:56:31 435.215
